Weather History for Alamosa, CO

Change the Weather History Date:

Thursday, December 29, 2011

  Actual Average Record
Temperature  
Mean Temperature 19 °F 16 °F  
Max Temperature 38 °F 34 °F 51 °F (2004)
Min Temperature -1 °F -2 °F -33 °F (2007)
Degree Days  
Heating Degree Days 46 49  
Month to date heating degree days 1493 1364  
Since 1 July heating degree days 3515 3539  
Cooling Degree Days 0 0  
Month to date cooling degree days 0 0  
Year to date cooling degree days 182 51  
Moisture  
Dew Point 6 °F    
Average Humidity 62    
Maximum Humidity 87    
Minimum Humidity 37    
Precipitation  
Precipitation 0.00 in 0.01 in 0.19 in (2004)
Month to date precipitation 0.27 0.33  
Year to date precipitation 4.60 7.29  
Snow  
Snow 0.00 in 0.20 in 2.00 in (2013)
Month to date snowfall 5.0 4.3  
Since 1 July snowfall 12.4 10.1  
Snow Depth T in    
Sea Level Pressure  
Sea Level Pressure 30.29 in    
Wind  
Wind Speed 2 mph (West)    
Max Wind Speed 9 mph    
Max Gust Speed 12 mph    
Visibility 10 miles    
Events      
T = Trace of Precipitation, MM = Missing Value Source: NWS Daily Summary

Daily Weather History Graph

Daily Weather History Graph

Search for Another Location

Airport:

Trip Planner

Search our weather history database for the weather conditions in past years. The results will help you decide how hot, cold, wet, or windy it might be!

Date:

Astronomy

Dec. 29, 2011 Rise Set
Actual Time 7:17 AM MST 4:53 PM MST
Civil Twilight 6:48 AM MST 5:22 PM MST
Nautical Twilight 6:15 AM MST 5:55 PM MST
Astronomical Twilight 5:43 AM MST 6:27 PM MST
Moon 10:18 AM MST (12/29) 10:25 PM MST (12/29)
Length of Visible Light 10h 34m
Length of Day
9h 36m
Waxing Crescent, 27% of the Moon is Illuminated
Dec 29
Waxing Crescent
Dec 31
First Quarter
Jan 9
Full
Jan 16
Last Quarter
Jan 23
New

Hourly Weather History & Observations

Time (MST) Temp. Windchill Dew Point Humidity Pressure Visibility Wind Dir Wind Speed Gust Speed Precip Events Conditions
12:52 AM 3.9 °F - -0.9 °F 80% 30.39 in 10.0 mi Calm Calm - N/A   Clear
1:52 AM 3.0 °F -4.4 °F -2.9 °F 76% 30.37 in 10.0 mi SE 3.5 mph - N/A   Clear
2:52 AM 1.9 °F - -2.9 °F 80% 30.36 in 10.0 mi Calm Calm - N/A   Clear
3:52 AM 1.0 °F -8.7 °F -4.0 °F 79% 30.38 in 10.0 mi WSW 4.6 mph - N/A   Clear
4:52 AM 1.9 °F -5.6 °F -4.0 °F 76% 30.39 in 10.0 mi WNW 3.5 mph - N/A   Clear
5:52 AM 1.4 °F -9.9 °F -5.8 °F 72% 30.19 in 10.0 mi West 5.8 mph - N/A   Clear
6:52 AM -0.0 °F -11.6 °F -5.1 °F 79% 30.45 in 10.0 mi ENE 5.8 mph - N/A   Clear
7:52 AM 3.2 °F - -2.2 °F 78% 30.17 in 10.0 mi Calm Calm - N/A   Clear
8:52 AM 10.9 °F - 3.9 °F 73% 30.43 in 10.0 mi Calm Calm - N/A   Clear
9:52 AM 19.4 °F - 8.6 °F 63% 30.18 in 10.0 mi Calm Calm - N/A   Clear
10:52 AM 23.0 °F 18.4 °F 10.0 °F 58% 30.35 in 10.0 mi WSW 3.5 mph - N/A   Clear
11:52 AM 28.9 °F - 12.0 °F 49% 30.28 in 10.0 mi Calm Calm - N/A   Clear
12:52 PM 34.0 °F - 12.0 °F 40% 30.22 in 10.0 mi Calm Calm - N/A   Clear
1:52 PM 37.9 °F - 14.0 °F 38% 30.16 in 10.0 mi Calm Calm - N/A   Clear
2:52 PM 37.0 °F 32.4 °F 16.0 °F 42% 30.17 in 10.0 mi WSW 5.8 mph - N/A   Clear
3:52 PM 36.0 °F 32.1 °F 16.0 °F 44% 30.19 in 10.0 mi West 4.6 mph - N/A   Clear
4:52 PM 30.9 °F - 17.1 °F 57% 30.23 in 10.0 mi Calm Calm - N/A   Clear
5:52 PM 23.0 °F 15.8 °F 14.0 °F 68% 30.30 in 10.0 mi WNW 5.8 mph - N/A   Clear
6:52 PM 19.9 °F 14.9 °F 12.9 °F 74% 30.34 in 10.0 mi NW 3.5 mph - N/A   Clear
7:52 PM 15.1 °F 6.4 °F 10.0 °F 80% 30.38 in 10.0 mi West 5.8 mph - N/A   Clear
8:52 PM 12.2 °F - 6.8 °F 79% 30.13 in 10.0 mi Calm Calm - N/A   Clear
9:52 PM 10.9 °F 2.9 °F 7.0 °F 84% 30.33 in 10.0 mi South 4.6 mph - N/A   Clear
10:52 PM 15.1 °F - 10.0 °F 80% 30.30 in 10.0 mi Calm Calm - N/A   Clear
11:52 PM 12.0 °F - 8.1 °F 84% 30.27 in 10.0 mi Calm Calm - N/A   Clear